Tehran, Iran

9:12 AM +0430 on August 21, 2017 (GMT +0430)
Mehrabad International

Weather History for OIII - August, 2017

Change the Weather History Date:

Sunday, August 13, 2017

  Actual Average Record
Temperature  
Mean Temperature 86 °F -  
Max Temperature 95 °F 91 °F 104 °F (1997)
Min Temperature 76 °F 72 °F 69 °F (2002)
Cooling Degree Days 20    
Growing Degree Days 36 (Base 50)    
Moisture  
Dew Point 44 °F    
Average Humidity 24    
Maximum Humidity 39    
Minimum Humidity 8    
Precipitation  
Precipitation 0.00 in 0.00 in - ()
Sea Level Pressure  
Sea Level Pressure 29.86 in    
Wind  
Wind Speed 4 mph ()    
Max Wind Speed 12 mph    
Max Gust Speed -    
Visibility 6.2 miles    
Events      
Averages and records for this station are not official NWS values.
T = Trace of Precipitation, MM = Missing Value Source: Averaged Metar Reports

Daily Weather History Graph

Daily Weather History Graph

Search for Another Location

Airport or City:

Trip Planner

Search our weather history database for the weather conditions in past years. The results will help you decide how hot, cold, wet, or windy it might be!

Date:

Astronomy

Aug. 13, 2017 Rise Set
Actual Time 6:21 AM +0430 7:56 PM +0430
Civil Twilight 5:54 AM +0430 8:23 PM +0430
Nautical Twilight 5:21 AM +0430 8:56 PM +0430
Astronomical Twilight 4:47 AM +0430 9:30 PM +0430
Moon 11:27 PM +0430 (8/13) 11:45 AM +0430 (8/13)
Length of Visible Light 14h 28m
Length of Day
13h 34m
Waning Gibbous, 69% of the Moon is Illuminated
Aug 13
Waning Gibbous
Aug 15
Last Quarter
Aug 21
New
Aug 29
First Quarter
Sep 6
Full

Hourly Weather History & Observations

Time (+0430) Temp. Dew Point Humidity Pressure Visibility Wind Dir Wind Speed Gust Speed Precip Events Conditions
12:00 AM 86.0 °F 44.6 °F 23% 29.89 in - ENE 4.6 mph - N/A   Clear
12:24 AM 84.2 °F 46.4 °F 27% 29.92 in - ENE 4.6 mph - N/A   Clear
12:30 AM 84.2 °F 46.4 °F 27% 29.92 in - ENE 4.6 mph - N/A   Clear
12:59 AM 82.4 °F 48.2 °F 30% 29.89 in - Calm Calm - N/A   Clear
1:00 AM 82.4 °F 48.2 °F 30% 29.89 in - Calm Calm - N/A   Clear
1:26 AM 80.6 °F 50.0 °F 34% 29.89 in - Calm Calm - N/A   Clear
1:30 AM 81 °F 49 °F 23% 29.59 in 6 mi Calm Calm - -  
1:30 AM 80.6 °F 50.0 °F 34% 29.89 in - Calm Calm - N/A   Clear
2:00 AM 80.6 °F 48.2 °F 32% 29.89 in - NE 4.6 mph - N/A   Clear
2:23 AM 80.6 °F 50.0 °F 34% 29.89 in - NNE 4.6 mph - N/A   Clear
2:30 AM 80.6 °F 50.0 °F 34% 29.89 in - NNE 4.6 mph - N/A   Clear
2:50 AM 80.6 °F 50.0 °F 34% 29.89 in - Calm Calm - N/A   Clear
3:00 AM 80.6 °F 50.0 °F 34% 29.89 in - Calm Calm - N/A   Clear
3:26 AM 78.8 °F 42.8 °F 28% 29.89 in - West 4.6 mph - N/A   Clear
3:30 AM 78.8 °F 42.8 °F 28% 29.89 in - West 4.6 mph - N/A   Clear
3:51 AM 78.8 °F 44.6 °F 30% 29.89 in - Calm Calm - N/A   Clear
4:00 AM 78.8 °F 44.6 °F 30% 29.89 in - Calm Calm - N/A   Clear
4:23 AM 77.0 °F 46.4 °F 34% 29.89 in - Calm Calm - N/A   Clear
4:30 AM 78 °F 46 °F 21% 29.57 in 6 mi Calm Calm - -  
4:30 AM 77.0 °F 46.4 °F 34% 29.89 in - Calm Calm - N/A   Clear
4:59 AM 77.0 °F 48.2 °F 36% 29.89 in - North 4.6 mph - N/A   Clear
5:00 AM 77.0 °F 48.2 °F 36% 29.89 in - North 4.6 mph - N/A   Clear
5:27 AM 77.0 °F 48.2 °F 36% 29.89 in - North 4.6 mph - N/A   Clear
5:30 AM 77.0 °F 48.2 °F 36% 29.89 in - North 4.6 mph - N/A   Clear
5:57 AM 77.0 °F 50.0 °F 39% 29.89 in - North 4.6 mph - N/A   Clear
6:00 AM 77.0 °F 50.0 °F 39% 29.89 in - North 4.6 mph - N/A   Clear
6:26 AM 78.8 °F 48.2 °F 34% 29.89 in - Calm Calm - N/A   Clear
6:30 AM 78.8 °F 48.2 °F 34% 29.89 in - Calm Calm - N/A   Clear
6:55 AM 80.6 °F 44.6 °F 28% 29.92 in - SE 9.2 mph - N/A   Clear
7:00 AM 80.6 °F 44.6 °F 28% 29.92 in - SE 9.2 mph - N/A   Clear
7:22 AM 80.6 °F 44.6 °F 28% 29.92 in - ESE 4.6 mph - N/A   Clear
7:30 AM 81 °F 44 °F 17% 29.59 in 6 mi ESE 4.5 mph - -  
7:30 AM 80.6 °F 44.6 °F 28% 29.92 in - ESE 4.6 mph - N/A   Clear
8:00 AM 82.4 °F 42.8 °F 25% 29.92 in - SE 4.6 mph - N/A   Clear
8:30 AM 82.4 °F 42.8 °F 25% 29.92 in - ESE 6.9 mph - N/A   Clear
9:00 AM 84.2 °F 42.8 °F 23% 29.95 in - SE 6.9 mph - N/A   Clear
9:30 AM 84.2 °F 41.0 °F 22% 29.95 in - SSE 6.9 mph - N/A   Clear
10:00 AM 86.0 °F 39.2 °F 19% 29.95 in - SSE 9.2 mph - N/A   Clear
10:30 AM 85 °F 41 °F 12% 29.63 in 6 mi SSW 8.9 mph - -   Scattered Clouds
10:30 AM 86.0 °F 41.0 °F 20% 29.95 in 6.2 mi SSW 9.2 mph - N/A   Partly Cloudy
11:00 AM 87.8 °F 39.2 °F 18% 29.95 in 6.2 mi South 9.2 mph - N/A   Scattered Clouds
11:30 AM 87.8 °F 42.8 °F 21% 29.95 in 6.2 mi SSW 11.5 mph - N/A   Scattered Clouds
12:00 PM 89.6 °F 42.8 °F 20% 29.92 in 6.2 mi South 9.2 mph - N/A   Scattered Clouds
12:30 PM 87.8 °F 41.0 °F 19% 29.92 in 6.2 mi SSW 9.2 mph - N/A   Mostly Cloudy
1:00 PM 91.4 °F 41.0 °F 17% 29.92 in 6.2 mi SW 9.2 mph - N/A   Mostly Cloudy
1:30 PM 90 °F 44 °F 12% 29.60 in 6 mi WSW 6.7 mph - -   Scattered Clouds
1:30 PM 89.6 °F 44.6 °F 21% 29.92 in 6.2 mi WSW 6.9 mph - N/A   Scattered Clouds
2:00 PM 89.6 °F 42.8 °F 20% 29.89 in 6.2 mi West 11.5 mph - N/A   Scattered Clouds
2:30 PM 89.6 °F 42.8 °F 20% 29.89 in 6.2 mi SE 9.2 mph - N/A   Scattered Clouds
3:00 PM 91.4 °F 42.8 °F 18% 29.89 in 6.2 mi Calm Calm - N/A   Scattered Clouds
3:30 PM 91.4 °F 41.0 °F 17% 29.89 in 6.2 mi SSE 6.9 mph - N/A   Scattered Clouds
4:00 PM 95.0 °F 39.2 °F 14% 29.86 in 6.2 mi East 9.2 mph - N/A   Scattered Clouds
4:30 PM 94 °F 41 °F 8% 29.56 in 6 mi ESE 8.9 mph - -   Scattered Clouds
4:30 PM 93.2 °F 41.0 °F 16% 29.86 in 6.2 mi ESE 9.2 mph - N/A   Scattered Clouds
5:00 PM 95.0 °F 37.4 °F 13% 29.86 in 6.2 mi East 6.9 mph - N/A   Scattered Clouds
5:30 PM 95.0 °F 37.4 °F 13% 29.86 in 6.2 mi SSE 6.9 mph - N/A   Partly Cloudy
6:00 PM 95.0 °F 39.2 °F 14% 29.83 in 6.2 mi South 9.2 mph - N/A   Partly Cloudy
6:30 PM 95.0 °F 39.2 °F 14% 29.83 in 6.2 mi NE 4.6 mph - N/A   Partly Cloudy
7:00 PM 95.0 °F 39.2 °F 14% 29.83 in 6.2 mi South 9.2 mph - N/A   Partly Cloudy
7:30 PM 94 °F 39 °F 8% 29.52 in 6 mi SSW 4.5 mph - -   Scattered Clouds
7:30 PM 93.2 °F 39.2 °F 15% 29.83 in 6.2 mi SSW 4.6 mph - N/A   Partly Cloudy
8:00 PM 93.2 °F 39.2 °F 15% 29.83 in 6.2 mi SE 6.9 mph - N/A   Partly Cloudy
8:30 PM 91.4 °F 41.0 °F 17% 29.86 in 6.2 mi Calm Calm - N/A   Partly Cloudy
9:00 PM 89.6 °F 42.8 °F 20% 29.86 in 6.2 mi Calm Calm - N/A   Partly Cloudy
9:30 PM 89.6 °F 42.8 °F 20% 29.86 in 6.2 mi Calm Calm - N/A   Partly Cloudy
10:00 PM 87.8 °F 46.4 °F 24% 29.86 in 6.2 mi Calm Calm - N/A   Partly Cloudy
10:30 PM 87 °F 45 °F 14% 29.56 in 6 mi ESE 6.7 mph - -   Scattered Clouds
10:30 PM 87.8 °F 44.6 °F 22% 29.89 in 6.2 mi ESE 6.9 mph - N/A   Partly Cloudy
11:00 PM 87.8 °F 46.4 °F 24% 29.89 in 6.2 mi South 4.6 mph - N/A   Partly Cloudy
11:30 PM 89.6 °F 42.8 °F 20% 29.89 in 6.2 mi East 6.9 mph - N/A   Partly Cloudy